This demonstration page uses our WeatherBlox Daily Observations layout. Learn more.

Left ArrowRight Arrow

44.31136, -96.79839

Hourly Observations for August 9, 2018

Temp ( °F °C ) Dew Point ( °F °C ) Humidity (%) Winds ( mph kmh ) Pressure ( in mb ) Visibility ( mi km ) Precip ( " mm )
12:56 am 00:56 Clear 72 22.2 66 18.9 82 82 Calm 29.95 1014 10 16 0.00 0.00
1:56 am 01:56 Clear 71 21.7 66 18.9 84 84 Calm 29.96 1015 10 16 0.00 0.00
2:56 am 02:56 Clear 65 18.3 63 17.2 93 93 NW 3 6 29.96 1015 10 16 0.00 0.00
3:56 am 03:56 Clear 65 18.3 64 17.8 97 97 NNW 5 7 29.96 1015 7 11 0.00 0.00
4:56 am 04:56 Clear 64 17.8 63 17.2 96 96 NW 5 7 29.97 1015 7 11 0.00 0.00
5:11 am 05:11 Clear with Mist and Fog 63 17 63 17 100 100 NW 5 7 29.94 1014 2 3 0.00 0.00
5:23 am 05:23 Clear with Mist and Fog 63 17 63 17 100 100 NW 3 6 29.94 1014 1 2 0.00 0.00
5:31 am 05:31 Clear with Mist and Fog 63 17 63 17 100 100 NNW 5 7 29.94 1014 3 4 0.00 0.00
5:38 am 05:38 Clear with Mist and Fog 63 17 63 17 100 100 NNW 5 7 29.94 1014 5 8 0.00 0.00
5:56 am 05:56 Clear 63 17.2 62 16.7 97 97 NNW 5 7 29.99 1016 10 16 0.00 0.00
6:56 am 06:56 Sunny 63 17.2 61 16.1 93 93 NNW 5 7 30.00 1016 10 16 0.00 0.00
7:56 am 07:56 Sunny 65 18.3 61 16.1 87 87 NNW 3 6 30.02 1017 9 14 0.00 0.00
8:56 am 08:56 Sunny 68 20 62 16.7 81 81 N 5 7 30.04 1017 8 13 0.00 0.00
9:56 am 09:56 Sunny 72 22.2 64 17.8 76 76 NNW 5 7 30.05 1018 7 11 0.00 0.00
10:56 am 10:56 Sunny 77 25 65 18.3 66 66 NNW 6 9 30.06 1018 8 13 0.00 0.00
11:56 am 11:56 Sunny 79 26.1 63 17.2 58 58 N 10 17 30.06 1018 9 14 0.00 0.00
12:56 pm 12:56 Sunny 81 27.2 63 17.2 54 54 N 12 19 30.05 1018 9 14 0.00 0.00
1:56 pm 13:56 Sunny 82 27.8 63 17.2 53 53 NE 13 20 30.05 1018 9 14 0.00 0.00
2:56 pm 14:56 Sunny 82 27.8 63 17.2 53 53 NE 7 11 30.05 1018 10 16 0.00 0.00
3:56 pm 15:56 Mostly Sunny 82 27.8 61 16.1 49 49 NE 8 13 30.05 1018 10 16 0.00 0.00
4:56 pm 16:56 Sunny 82 27.8 62 16.7 51 51 NNE 6 9 30.05 1018 10 16 0.00 0.00
5:56 pm 17:56 Sunny 81 27.2 63 17.2 54 54 NE 8 13 30.06 1018 10 16 0.00 0.00
6:56 pm 18:56 Sunny 80 26.7 62 16.7 54 54 NE 7 11 30.06 1018 10 16 0.00 0.00
7:56 pm 19:56 Sunny 78 25.6 62 16.7 58 58 NE 5 7 30.06 1018 10 16 0.00 0.00
8:56 pm 20:56 Clear 74 23.3 65 18.3 74 74 Calm 30.07 1018 7 11 0.00 0.00
9:56 pm 21:56 Clear 72 22.2 63 17.2 73 73 Calm 30.08 1019 10 16 0.00 0.00
10:56 pm 22:56 Clear 67 19.4 64 17.8 91 91 Calm 30.09 1019 7 11 0.00 0.00
11:56 pm 23:56 Clear 65 18.3 63 17.2 93 93 Calm 30.10 1019 7 11 0.00 0.00

Powered by AerisWeather